Location: Brunsen
(51.8651°N, 9.8610°E)
Time: 19:37:55
(UTC+00:00)

CZ-2C R/B - Pass Details

Date: 18 August 2024
Orbit: 782 x 869 km, 98.3° (Epoch: 07 September)

Event Time Altitude Azimuth Distance (km) Brightness Sun altitude
Exits shadow 23:38:17 13° 105° (ESE) 2,225 4.8 -25.4°
Maximum altitude 23:41:51 25° 58° (ENE) 1,621 4.5 -25.3°
Drops below altitude 10° 23:46:06 10° 5° (N) 2,415 6.1 -25.3°
Sets 23:48:47 0° 353° (N) 3,337 7.1 -25.2°
